Regional Weather Roundup
Issued by NWS Wakefield, VA

Home | Current Version | Previous Version | Text Only | Print | Product List | Glossary On
Versions: 1 2 3 4 5 6 7 8 9 10 11 12 13 14 15 16 17 18 19 20 21 22 23 24 25 26 27 28 29 30 31 32 33 34 35 36 37 38 39 40 41 42 43 44 45 46 47 48 49 50
000
ASUS41 KAKQ 230515
RWRAKQ

REGIONAL WEATHER ROUNDUP
NATIONAL WEATHER SERVICE WAKEFIELD VA
100 AM EDT TUE MAY 23 2017

Note: "fair" indicates few or no clouds below 12,000 feet with no
significant weather and/or obstructions to visibility. * = Denotes
station may not report precipitation (e.g., rain,snow,etc.),
thunder or fog.

VAZ042-051-052>054-056-230600-
NORTHERN VIRGINIA

CITY           SKY/WX    TMP DP  RH WIND       PRES   REMARKS
WASH NATIONAL  CLOUDY    65  64  97 N5        29.97F
DULLES         CLOUDY    62  55  77 NW6       29.98F
FORT BELVOIR   CLOUDY    63  61  95 CALM      29.96F
QUANTICO       CLOUDY    64  64 100 W3        29.97S
FREDERICKSBRG* CLOUDY    65  65 100 CALM      29.96F
STAFFORD*      CLOUDY    62  62 100 CALM      30.00F
WARRENTON      CLOUDY    64  53  69 N6        29.97F
CULPEPER*      CLOUDY    62  62 100 N3        29.98F
MANASSAS*        N/A     63  59  87 N7        29.98F
LEESBURG*      CLOUDY    63  54  72 N8        29.99F
WINCHESTER     CLOUDY    54  50  87 CALM      30.00F
FRONT ROYAL*   CLOUDY    54  52  94 CALM      30.00S
LURAY*         CLOUDY    57  54  88 CALM      30.00F
$$

VAZ048-049-060>072-079>083-230600-
CENTRAL AND SOUTH CENTRAL VIRGINIA

CITY           SKY/WX    TMP DP  RH WIND       PRES   REMARKS
RICHMOND       MOCLDY    65  65 100 CALM      29.95F
CHESTERFIELD*  MOCLDY   N/A N/A N/A CALM      29.96F
PETERSBURG*    FOG       60  59  97 CALM      29.96F VSB 3/4
HANOVER        CLOUDY    64  62  93 CALM      29.97S FOG
TAPPAHANNOCK*  MOCLDY    64  64 100 CALM      29.96F FOG
QUINTON*       CLOUDY    62  62 100 CALM      29.95F FOG
CHARLOTTSVILLE CLOUDY    68  67  96 N5        29.96F
GORDONSVILLE*  CLOUDY    66  66 100 NE3       29.96F
ORANGE*        CLOUDY    64  55  72 NE5       29.97F
LOUISA*        CLOUDY    70  68  94 CALM      29.95F
BUMPASS*       CLOUDY    65  65 100 N6        29.96F
FARMVILLE*     FOG       66  66 100 CALM      29.94S VSB 1/4
CREWE*         CLOUDY    64  60  87 CALM      29.95F VSB 3/4
FORT PICKETT*  FAIR      65  62  87 CALM      29.96F
CHASE CITY*    FAIR      64  63  94 CALM      29.96F
CLARKSVILLE*   CLOUDY    66  66 100 CALM      29.95F
SOUTH HILL*    MOCLDY    65  65 100 CALM      30.01F
LAWRENCEVILLE* FAIR      66  65  97 CALM      29.96F
EMPORIA*         N/A     63  63 100 CALM      29.96F
$$

VAZ088>098-230600-
SOUTHEAST VIRGINIA

CITY           SKY/WX    TMP DP  RH WIND       PRES   REMARKS
NORFOLK        CLOUDY    68  66  93 CALM      29.94F
VIRGINIA BEACH CLOUDY    66  64  93 N3        29.93F
NORFOLK NAVAL  NOT AVBL
WEST POINT*    PTCLDY    63  62  97 CALM      29.96S
SALUDA*        CLOUDY    64  64 100 N3        29.95S
NEWPORT NEWS   CLOUDY    63  62  97 E3        29.94F FOG
LANGLEY AFB    CLOUDY    64  64 100 CALM      29.94S
FORT EUSTIS    MOCLDY    65  64  95 CALM      29.92F
WILLIAMSBURG*  CLOUDY    66  66 100 CALM      29.95F
HR EXEC AP*    FAIR      63  61  94 CALM      29.92F
FRANKLIN*      CLOUDY    65  64  98 CALM      29.95F
US460-WAKEFLD  CLOUDY    64  64 100 CALM      29.95F FOG
$$

VAZ020-022-025-037-045-230600-
WEST CENTRAL AND SOUTHWEST VIRGINIA

CITY           SKY/WX    TMP DP  RH WIND       PRES   REMARKS
STAUNTON*      PTCLDY    57  50  78 CALM      30.02S
WAYNESBORO*    PTCLDY    56  53  89 CALM      30.00F
HOT SPRINGS VA CLOUDY    54  37  54 CALM      30.06F
LYNCHBURG      CLOUDY    58  56  93 CALM      29.98S
DANVILLE       CLOUDY    65  65 100 CALM      29.95F
SOUTH BOSTON*  CLOUDY    65  64  94 CALM      29.95F VSB 3/4
MARTINSVILLE   PTCLDY    63  61  94 CALM      29.99S
ROANOKE        PTCLDY    61  55  81 E6        30.00F
BLACKSBURG     CLOUDY    56  55  93 CALM      30.03F
DUBLIN*        PTCLDY    58  51  77 CALM      30.02F
MARION*        CLOUDY    58  55  90 CALM      30.04F
HILLSVILLE*    CLOUDY    59  55  87 CALM      30.01F
RICHLANDS*     FAIR      57  54  90 NE8       30.01F
WISE*          CLOUDY    55  55 100 CALM      30.02F
ABINGDON*      CLOUDY    63  58  82 NE3       29.98F
$$

MDZ021>025-VAZ099-100-230600-
SOUTHERN MARYLAND AND THE DELMARVA PENINSULA

CITY           SKY/WX    TMP DP  RH WIND       PRES   REMARKS
PATUXENT RIVER CLEAR     63  63 100 NW5       29.95S
BAY BRIDGE APT FOG       61  61 100 N3        29.97F VSB 3/4
LEONARDTOWN    PTCLDY    59  59 100 W5        29.97R
DOVER          CLOUDY    63  63 100 NW10      29.94F
GEORGETOWN     FOG      N/A N/A N/A N5        29.94F VSB 1
EASTON         CLOUDY    64  62  94 N7        29.99F FOG
CAMBRIDGE      CLOUDY    64  64 100 N5        29.95F FOG
SALISBURY      CLOUDY    66  66 100 N6        29.93F FOG
OCEAN CITY     CLOUDY    65  65 100 N6        29.93F FOG
WALLOPS ISLAND CLOUDY    66  66 100 NW3       29.93S
ACCOMACK*      CLOUDY    68  53  58 NW3       29.93F
$$

NCZ012>017-030>032-230600-
NORTH CENTRAL AND EASTERN NORTH CAROLINA

CITY           SKY/WX    TMP DP  RH WIND       PRES   REMARKS
ROANOKE RAPIDS NOT AVBL
RALEIGH        LGT RAIN  68  67  96 S7        29.97F
ELIZABETH CITY CLOUDY    70  69  97 S3        29.95F
AHOSKIE*         N/A     66  65  99 CALM      29.95F
EDENTON*       CLOUDY    73  69  88 CALM      29.96F
CURRITUCK*     CLOUDY   N/A N/A N/A CALM      29.96F
KILL DEVIL HLS NOT AVBL
MANTEO         CLOUDY    69  67  93 SW9       29.96F
CAPE HATTERAS  LGT RAIN  70  66  87 SW6       29.97F
TARBORO*       NOT AVBL
GOLDSBORO      LGT RAIN  68  68 100 CALM      29.93F
WASHINGTON     LGT RAIN  69  67  94 SW5       29.97F
GREENVILLE     LGT RAIN  70  70 100 SW5       29.98F
NEW BERN       LGT RAIN  68  68 100 SW5       29.98F
WILMINGTON     CLOUDY    69  67  93 S3        29.97F
$$

VAZ048-230600-
ELSEWHERE

CITY           SKY/WX    TMP DP  RH WIND       PRES   REMARKS
HARRISBURG PA  MOCLDY    56  55  97 CALM      29.98F FOG
BALTIMORE      PTCLDY    61  61 100 CALM      29.96F FOG
ANNAPOLIS      MOCLDY    64  64 100 N3        29.96F
ANDREWS AFB    FOG       63  63 100 N5        29.95F VSB 1/4
PHILADELPHIA   CLOUDY    64  59  83 NW8       29.97S
HENDERSON NC   LGT RAIN  67  64  90 S7        29.97S
GREENSBORO     LGT RAIN  68  68 100 SE9       29.95F
ROCKY MOUNT    MOCLDY    71  69  93 SW7       29.95F
$$

VAZ100-230600-
MARINE

STATION/POSITION TIME  TEMP    WIND        PRES    WAVE   SWELL
                       AIR SEA DIR/SP/G            HT/PER HT/PER
                 (UTC) (F)     (DEG/KT/KT) (MB)    (FT/S) (FT/S)
CAPE MAY NJ      0448   63 61  300/  1/  4 1013.6F
LEWES DE         0448   63 61  340/  9/ 11 1013.8F
15NM E FENWICK I 0450   59 57  360/  8/  8 1013.7F   3/ 5   3/ 5
OCEAN-CITY-INLET 0448   64 62   20/  5/  8 1013.6F
WACHAPREAGUE VA  0448   67 68  310/  3/  5 1013.2F
THOMAS POINT MD  0500   64 66   20/ 10/ 11   N/A
GOOSES REEF MD   0500   65 59   30/ 10/ 12 1014.9
COVE POINT MD    0448   65     360/  7/ 10 1014.6F
SOLOMONS ISLAND  0448   63 67  330/  3/  4   N/A
BISHOPS HEAD MD  0448   64 69  340/  6/  7 1014.4F
PINEY POINT MD   0448          360/  5/  5   N/A
POTOMAC MD       0500   65 68  330/  4/  4 1013.2    0
CAMBRIDGE MD     0448   64 69                N/A
LEWISETTA VA     0448   65 68  290/  5/  5 1014.3S
RAPPAHANNOCK LGT 0448          320/ 10/ 11 1014.7F
STINGRAY PT      0450   65      10/  4/  6 1014.2F
YORK RVR RNG VA  0448   67     300/  4/  4 1013.5F
YORKTOWN VA      0448   66 69  270/  2/  2 1013.9F
JAMESTOWN VA     0500   67 73   70/  2/  4   N/A     0
DOMINION TERM VA 0448   68      CALM  /  1 1014.1F
KIPTOPEKE VA     0448      66  360/  5/  8   N/A
CHES BAY BRIDGE  0448   68 68  280/  4/  4 1013.8F
CAPE HENRY VA    0448   68     280/  5/  5   N/A
WILLOUBY STN VA  0448   68     310/  2/  2 1013.9F
S CRANEY ISL VA  0448   69      CALM  /  1 1013.9F
CAPE HENRY BUOY  0442      65                N/A     3/ 8
1ST LANDING BUOY 0500   68 67              1014.1    1/ 3
CAPE CHARLES BUO 0451      63                N/A     2/ 8
64NM E OF VA BCH 0450   65 65  270/ 10/ 12 1014.3R   4/ 8   3/ 8
DUCK PIER NC     0448   71 65  230/ 11/ 14 1013.8F
44100 DUCK FRF   0435      65                N/A     3/ 8
44056 DUCK FRF   0430      65                N/A     2/ 8
OREGON INLET NC  0442   72 74  200/ 15/ 17 1014.2F
HATTERAS NC      0448   72 76  190/  4/  9 1014.6F
DIAMOND SHLS NC  0450   75 78  240/ 10/ 10 1015.0F   3/ 8   3/ 8
CAPE LOOKOUT NC  0500   73     250/  7/  9 1014.5F
$$



USA.gov is the U.S. government's official web portal to all federal, state and local government web resources and services.